Flag for U.S.A. Weather past 2 weeks in Little Rock, Arkansas, U.S.A.

Now
86 °F

Passing clouds.


Feels Like: 87 °F
Forecast: 58 / 84 °F
Wind: 10 mph from Southwest

Location: Adams Field

Current Time: Oct 25, 2014 at 5:14:50 PM

Latest Report: Oct 25, 2014 at 3:53 PM


Visibility: 10 mi

Pressure: 30.02 "Hg

Humidity: 45%

Dew point: 62 °F

Location of Little RockLocation

Historic Weather in Little Rock — Graph

°F

Little Rock temperature yesterday

Maximum temperature yesterday: 78 °F (at 3:53 PM)
Minimum temperature yesterday: 48 °F (at 6:53 AM)
Average temperature yesterday: 62 °F

Past Weeks' High & Low Weather Summary

 TemperatureHumidityPressure
High86 °F (Oct 10, 3:53 PM)93% (Oct 10, 10:53 PM)30.27 "Hg (Oct 10, 10:53 PM)
Low47 °F (Oct 16, 4:53 AM)26% (Oct 15, 3:53 PM)28.90 "Hg (Oct 12, 3:53 PM)
Average63 °F70%30.01 "Hg
* Reported Oct 10 3:53 PM — Oct 25 3:53 PM, Little Rock, Weather by CustomWeather, © 2014

Note: Actual official high and low records may vary slightly from our data, if they occured in-between our weather recording intervals... More about our weather records

Advertising

Little Rock weather history for previous 24 hours

 ConditionsComfort  
Time TempWeatherWind HumidityBarometerVisibility
3:53 PM
Oct 25
86 °FPassing clouds.10 mph45%30.02 "Hg10 mi
2:53 PM86 °FSunny.7 mph43%30.03 "Hg10 mi
1:53 PM85 °FSunny.8 mph46%30.05 "Hg10 mi
12:53 PM83 °FSunny.6 mph48%30.08 "Hg10 mi
11:53 AM80 °FSunny.8 mph51%30.10 "Hg10 mi
10:53 AM76 °FSunny.6 mph58%30.12 "Hg10 mi
9:53 AM69 °FSunny.10 mph70%30.13 "Hg10 mi
8:53 AM63 °FSunny.7 mph81%30.13 "Hg7 mi
7:53 AM59 °FClear.6 mph87%30.11 "Hg7 mi
6:53 AM58 °FClear.6 mph90%30.11 "Hg7 mi
5:53 AM58 °FPassing clouds.3 mph87%30.11 "Hg7 mi
4:53 AM58 °FPassing clouds.No wind87%30.09 "Hg7 mi
3:53 AM58 °FClear.No wind87%30.09 "Hg9 mi
2:53 AM58 °FClear.3 mph87%30.09 "Hg10 mi
1:53 AM60 °FClear.6 mph80%30.10 "Hg10 mi
12:53 AM60 °FPassing clouds.5 mph80%30.10 "Hg10 mi
11:53 PM
Oct 24
60 °FPassing clouds.5 mph83%30.11 "Hg10 mi
10:53 PM61 °FPassing clouds.5 mph81%30.11 "Hg10 mi
9:53 PM63 °FPassing clouds.No wind75%30.11 "Hg10 mi
8:53 PM65 °FPassing clouds.No wind70%30.10 "Hg10 mi
7:53 PM66 °FPassing clouds.3 mph68%30.10 "Hg10 mi
6:53 PM67 °FScattered clouds.5 mph68%30.09 "Hg10 mi
5:53 PM72 °FScattered clouds.7 mph55%30.09 "Hg10 mi
Weather by CustomWeather, © 2014

See weather overviewHow to use our weather pages